Location: Blauwhuis
(53.0167°N, 5.5333°E)
Time: 22:00:40
(UTC+00:00)

Daily predictions for brighter satellites

Satellite Brightness Start Highest point End
(mag) Time Altitude Azimuth Time Altitude Azimuth Time Altitude Azimuth
Cosmos 1844 Rocket 3.3 17:59:38 10° SSE 18:04:31 32° ESE 18:09:26 10° NE
NOSS 3-2 (C) 4.1 17:57:51 10° NW 18:05:07 84° NE 18:13:29 10° SE
Cosmos 372 Rocket 4.1 18:01:13 10° S 18:06:18 55° ESE 18:11:24 10° NNE
ATLAS CENTAUR R/B 3.6 18:07:12 10° WNW 18:09:45 17° NNW 18:12:15 10° NNE
Meteor 2-5 Rocket 4.5 18:05:58 10° N 18:11:05 33° ENE 18:16:16 10° SE
ISS -3.2 18:08:15 10° SW 18:11:30 45° SSE 18:14:45 10° E
NOSS 5 (C) 4.4 18:08:58 10° NW 18:11:57 57° NE 18:15:24 10° ESE
Cosmos 1844 4.4 18:07:05 10° SSE 18:11:59 31° ESE 18:16:51 10° NE
Cosmos 2034 Rocket 4.4 18:06:46 10° SSE 18:12:38 41° E 18:18:29 10° NNE
Lacrosse 4 Rocket 3.1 18:10:15 10° NNW 18:13:14 19° NNE 18:16:13 10° ENE
USA 186 3.1 18:11:52 10° ESE 18:14:33 24° ENE 18:17:17 10° N
Cosmos 1898 Rocket 4.3 18:10:37 10° SW 18:15:42 56° WNW 18:20:52 10° NNE
Meteor 1-12 Rocket 4.4 18:10:10 10° S 18:15:52 56° E 18:21:30 10° NNE
Cosmos 1300 Rocket 3.7 18:16:47 10° S 18:21:06 55° E 18:25:27 10° NNE
CENTAUR R/B 3.3 18:16:17 10° NW 18:24:09 87° SW 18:32:55 10° SE
Okean 1 Rocket 4.2 18:20:53 10° SE 18:24:29 24° E 18:28:07 10° NNE
Sich 1 Rocket 3.7 18:20:54 10° S 18:25:26 90° ESE 18:30:03 10° N
Cosmos 1833 Rocket 3.5 18:20:22 10° NNW 18:25:33 35° NE 18:30:12 12° ESE
NOSS 2-2 (E) 3.3 18:22:18 10° SW 18:25:54 83° NW 18:30:14 10° NE
Cosmos 2298 Rocket 4.1 18:22:23 10° S 18:27:35 57° ESE 18:32:49 10° NNE
Resurs 01 Rocket 3.3 18:25:51 11° E 18:28:15 17° NE 18:31:03 10° NNE
Cosmos 1975 4.4 18:24:53 10° SW 18:28:46 41° WNW 18:32:39 10° N
CSL-04 Debris 4.3 18:26:22 10° SSE 18:31:46 80° WSW 18:37:12 10° NNW
Cosmos 1025 Rocket 3.1 18:28:32 10° NNW 18:32:57 83° WSW 18:37:21 10° S
CSL-04 Rocket 3.9 18:28:16 10° SSE 18:33:44 81° WSW 18:39:19 10° NNW
Cosmos 1766 4.4 18:32:16 10° SE 18:35:26 24° E 18:38:38 10° NE
Okean 2 Rocket 3.0 18:31:10 10° S 18:35:38 76° E 18:40:06 10° NNE
NOSS 2-2 (D) 3.2 18:32:11 10° SW 18:35:45 84° NW 18:40:00 10° NE
ATLAS 2AS CENTAUR R/B 3.7 18:29:14 10° S 18:35:51 30° ESE 18:42:26 10° ENE
Cosmos 1937 Rocket 4.4 18:30:45 10° SW 18:35:52 53° WNW 18:40:58 10° NNE
YAOGAN 1 3.5 18:32:08 10° S 18:36:21 51° W 18:40:36 10° NNW
ATLAS 3B R/B 3.0 18:29:56 10° NW 18:36:37 58° NNE 18:42:35 14° ESE
Abrixas rocket 3.7 18:38:04 10° WSW 18:40:21 22° SSW 18:42:11 13° SSE
CREW DRAGON DEMO-1 DEB 4.3 18:39:25 10° W 18:42:05 29° SSW 18:44:16 13° SSE
Cosmos 1536 Rocket 3.6 18:38:15 10° NNW 18:42:44 87° W 18:47:13 10° S
Cosmos 1513 Rocket 4.5 18:37:04 10° S 18:43:18 87° E 18:49:28 10° N
SPOT 3 Rocket 4.4 18:40:10 15° ESE 18:43:44 31° ENE 18:48:13 10° N
ARIANE 5 R/B 4.5 18:42:31 13° ENE 18:43:53 14° NE 18:46:12 10° NNE
Cosmos 1125 Rocket 3.6 18:43:04 10° S 18:48:14 54° ESE 18:53:26 10° NNE
Resurs 1-3 4.4 18:48:54 18° ESE 18:51:25 32° ENE 18:55:20 10° N
SJ-6B 3.0 18:48:31 14° SE 18:51:31 48° ENE 18:55:13 10° N
CZ-4 R/B 3.6 18:50:24 10° SSW 18:54:05 29° W 18:57:45 10° NNW
Cosmos 2150 Rocket 4.0 18:49:44 10° SSW 18:55:09 83° ESE 19:00:40 10° NNE
Cosmos 1674 2.6 18:51:16 10° N 18:55:09 89° ENE 18:59:00 10° S
Cosmos 2026 Rocket 4.2 18:49:27 10° N 18:55:44 55° ENE 19:01:59 10° SSE
Cosmos 1092 Rocket 3.9 18:49:49 10° N 18:56:00 68° ENE 19:02:10 10° SSE
CZ-2C R/B 4.1 18:50:53 10° S 18:56:10 53° W 19:01:46 10° NNW
Cosmos 1464 Rocket 4.1 18:50:32 10° SSW 18:56:40 81° W 19:02:56 10° N
Cosmos 2285 Rocket 4.1 18:52:53 10° S 18:59:01 56° ESE 19:05:14 10° NNE
MOS 1 Rocket 3.0 18:57:11 10° NNE 19:01:38 82° ESE 19:05:55 10° SSW
FREGAT/IRIS 2.2 19:04:41 44° SE 19:05:15 58° ENE 19:07:50 10° N
ARGOS 3.6 19:06:22 10° S 19:11:41 63° WSW 19:17:03 10° NNW
CZ-2C R/B 2.8 19:06:18 10° NNE 19:11:46 53° E 19:17:15 10° S
Cosmos 1340 Rocket 3.3 19:15:11 33° ESE 19:15:50 35° E 19:19:31 10° NNE
Cosmos 1733 3.2 19:13:47 10° S 19:17:29 54° E 19:21:15 10° NNE
Cosmos 2151 Rocket 4.2 19:13:56 10° SSW 19:18:22 60° WNW 19:22:52 10° N
Lacrosse 5 rocket 1.9 19:14:12 10° WNW 19:18:31 55° NNE 19:20:43 28° ENE
Cosmos 2082 Rocket 2.6 19:13:19 10° NNW 19:18:44 45° NE 19:21:16 28° ESE
MOS 1 4.3 19:13:20 10° SSE 19:19:02 89° ENE 19:24:48 10° NNW
NOSS 2-2 (C) 4.4 19:17:10 10° WSW 19:20:41 44° NNW 19:24:56 10° NE
DMSP B5D2-2 4.2 19:16:26 10° NNE 19:21:38 54° E 19:26:48 10° S
BREEZE-M R/B 4.0 19:15:14 10° WSW 19:23:33 41° S 19:24:25 35° SE
Spot 2 Rocket 4.5 19:25:15 26° E 19:26:18 28° ENE 19:30:34 10° N
Meteor 1-15 Rocket 4.3 19:23:26 10° SSW 19:29:08 80° WNW 19:34:57 10° NNE
OBJECT-B 0.7 19:28:48 59° SE 19:29:15 72° ENE 19:32:31 10° N
Cosmos 1805 3.2 19:25:30 10° SSW 19:29:24 83° W 19:33:21 10° N
Ariane Rocket 3.4 19:28:29 10° S 19:33:31 63° WSW 19:38:35 10° NNW
H-2A R/B 3.8 19:30:46 10° SSW 19:35:15 32° W 19:39:52 10° NNW
Cosmos 1269 Rocket 4.5 19:30:12 10° NNW 19:35:27 60° WSW 19:39:33 16° S
Cosmos 1626 2.4 19:36:46 10° NNW 19:40:27 66° W 19:42:01 32° S
Cosmos 1626 Rocket 4.4 19:36:35 10° N 19:40:32 33° ENE 19:40:32 33° ENE
Okean 1-7 Rocket 3.6 19:36:13 10° N 19:40:46 61° ENE 19:41:50 47° SE
Terra 3.6 19:42:51 17° NE 19:42:51 17° NE 19:45:47 10° NNE
Cosmos 2263 Rocket 4.4 19:40:09 10° W 19:44:38 24° NW 19:49:08 10° NNE
COSMOS 2406 3.4 19:39:07 10° NW 19:44:46 70° WSW 19:47:55 27° SSE
MetOp-A 4.5 19:40:20 13° S 19:45:04 65° WSW 19:50:26 10° NNW
USA 186 3.7 19:42:35 12° SSW 19:45:09 29° W 19:48:07 10° NNW
Cosmos 1455 Rocket 3.5 19:47:18 42° ENE 19:47:18 42° ENE 19:50:50 10° NNE
ISS -3.5 19:44:47 10° W 19:47:46 62° SW 19:47:46 62° SW
Cosmos 1844 Rocket 3.3 19:42:41 10° SW 19:48:10 56° NW 19:53:43 10° NNE
SPOT 1/Viking Rocket 4.1 19:48:44 36° ENE 19:49:20 37° ENE 19:54:04 10° N
ATLAS CENTAUR R/B 3.5 19:47:49 10° NNW 19:49:59 15° N 19:51:16 13° NNE
Cosmos 2278 Rocket 2.4 19:51:32 43° SE 19:52:14 45° ESE 19:57:36 10° NE
Lacrosse 4 Rocket 1.1 19:48:28 10° NW 19:52:33 78° NE 19:52:52 72° E
Cosmos 1844 4.2 19:50:13 10° SW 19:55:49 60° NW 20:01:25 10° NNE
Meteor 1-22 Rocket 4.3 19:51:02 10° S 19:57:00 90° ESE 20:03:10 10° NNE
Meteor 1-24 Rocket 4.2 19:51:38 10° NNW 19:57:06 60° W 20:01:37 16° S
Cosmos 909 Rocket 4.0 19:51:00 10° NW 19:57:43 81° NE 19:59:55 43° SE
Cosmos 2266 Rocket 4.1 19:53:24 10° N 19:59:20 53° ENE 20:00:34 45° ESE
Exosat Rocket 3.9 19:54:59 10° SW 20:00:06 64° WNW 20:05:14 10° NNE
SL-14 R/B 4.1 19:56:33 10° NNW 20:00:21 48° W 20:01:54 30° SSW
Meteor 2-19 Rocket 4.3 19:55:08 10° N 20:01:17 82° ENE 20:03:47 38° SSE
Okean 1 Rocket 4.1 19:57:49 10° SSW 20:02:09 47° WNW 20:06:30 10° N
NOSS 3-4 (A) 3.3 19:57:17 10° SW 20:03:13 76° SE 20:09:41 10° NE
NOSS 3-4 (C) 3.3 19:57:23 10° SW 20:03:20 76° SE 20:09:47 10° NE
Resurs 01 Rocket 1.5 20:03:26 62° S 20:04:10 87° WSW 20:08:39 10° NNW
Cosmos 614 Rocket 4.3 20:01:26 10° NNW 20:06:26 46° NE 20:06:44 46° ENE
Cosmos 1833 Rocket 3.0 20:04:16 10° NW 20:09:50 61° WSW 20:11:54 37° S
CZ-2C R/B 3.6 20:05:53 10° NNE 20:09:58 66° ENE 20:09:58 66° ENE
Cosmos 1470 3.8 20:12:29 35° NNE 20:12:29 35° NNE 20:14:51 10° NNE
Cosmos 2251 Rocket 3.4 20:07:21 10° NNW 20:12:46 90° WSW 20:13:43 62° SSE
ERS-1 Rocket 3.6 20:17:40 40° NE 20:17:40 40° NE 20:22:00 10° N
IGS 5A 3.9 20:18:58 55° NNE 20:18:58 55° NNE 20:22:22 10° N
ARIANE 5 R/B 2.6 20:20:05 72° NNE 20:20:05 72° NNE 20:24:03 10° NNW
SPOT 3 Rocket 4.2 20:20:50 32° SSW 20:22:57 51° W 20:28:00 10° NNW
ATLAS 2AS CENTAUR R/B 2.9 20:18:09 10° SW 20:26:09 88° SE 20:34:01 10° NE
ATLAS 3B R/B 3.2 20:20:46 10° NW 20:27:22 52° SW 20:29:50 36° S
Landsat 7 3.7 20:27:59 80° NNE 20:27:59 80° NNE 20:32:35 10° NNW
Meteor 1-21 Rocket 4.2 20:26:41 10° NNW 20:32:31 89° E 20:33:16 70° SSE
SPOT 5 3.5 20:33:48 49° NE 20:33:48 49° NE 20:38:30 10° N
Meteor 2-10 4.1 20:34:18 69° ENE 20:34:18 69° ENE 20:39:11 10° NNE
Cosmos 1655 Rocket 4.1 20:29:43 10° NNW 20:36:00 75° W 20:37:50 48° SSW
Cosmos 2084 4.5 20:35:18 10° NW 20:39:00 42° N 20:39:00 42° N
Cosmos 1461 3.5 20:35:21 10° NW 20:39:30 62° NNW 20:39:30 62° NNW
CZ-2C R/B 4.3 20:46:57 10° N 20:51:52 33° WNW 20:56:49 10° WSW
Lacrosse 5 rocket 2.7 20:53:26 10° WNW 20:56:20 39° WNW 20:56:20 39° WNW
Cosmos 2082 Rocket 3.0 20:57:33 10° NW 21:02:50 42° WSW 21:03:08 42° WSW
Spot 2 Rocket 4.0 21:05:26 54° W 21:05:26 54° W 21:10:00 10° NNW
Meteor 2-21 4.4 21:03:29 10° NNW 21:09:42 79° W 21:09:42 79° W
COSMOS 2455 4.4 21:14:36 25° NE 21:14:36 25° NE 21:16:57 10° NE
Terra 3.0 21:21:44 39° N 21:21:44 39° N 21:24:43 10° NNW
Cosmos 1140 Rocket 4.3 21:17:37 10° NNW 21:21:18 48° NNW 21:21:18 48° NNW
Cosmos 407 Rocket 4.4 21:22:46 10° NNW 21:26:26 45° NW 21:26:26 45° NW
ATLAS CENTAUR R/B 4.0 21:26:34 10° NNW 21:27:26 15° NNW 21:27:26 15° NNW
Lacrosse 4 Rocket 4.1 21:28:11 10° WNW 21:29:10 13° W 21:29:10 13° W
Cosmos 2278 Rocket 3.2 21:33:00 21° WSW 21:36:24 43° NW 21:41:48 10° NNE
Resurs 01 Rocket 4.3 21:41:00 13° W 21:41:21 13° W 21:43:27 10° WNW
USA 229 DEB 4.1 21:41:49 10° NW 21:48:50 59° NNE 21:49:03 59° NE
USA 229 4.1 21:41:55 10° NW 21:48:56 59° NNE 21:49:09 58° NE
NOSS 3-4 (A) 4.5 21:48:47 10° W 21:54:37 43° NNW 22:01:00 10° NE
NOSS 3-4 (C) 4.5 21:48:53 10° W 21:54:43 44° NNW 22:01:06 10° NE
NOSS 3-1 (A) 4.2 21:54:09 10° NW 22:01:03 58° NNE 22:01:23 58° NE
Cosmos 2227 Rocket 4.2 22:07:03 10° NNW 22:11:11 20° NNE 22:11:40 20° NE
ATLAS 2AS CENTAUR R/B 3.9 22:10:21 10° W 22:17:58 46° NNW 22:25:19 10° NE
Cosmos 1943 Rocket 4.1 22:24:03 21° NNE 22:24:03 21° NNE 22:25:51 10° NNE
NOSS 3-1 (C) 4.2 22:31:44 10° NW 22:37:24 61° NW 22:37:24 61° NW
CZ-4C R/B 3.8 22:45:17 33° NNE 22:45:17 33° NNE 22:49:11 10° NE
COSMOS 2455 4.2 22:57:42 36° NNW 22:57:42 36° NNW 23:02:56 10° NE
Cosmos 2297 Rocket 3.9 22:52:47 10° NNW 22:56:27 29° NNE 22:56:27 29° NNE
Cosmos 2369 Rocket 4.0 23:10:31 27° NNE 23:10:31 27° NNE 23:13:03 10° NNE
SL-16 R/B 3.8 23:50:37 33° NE 23:50:37 33° NE 23:55:40 10° N
